Location: Lombard
(41.8800°N, 88.0080°W)
Time: 05:34:27
(UTC-05:00)

RS-15 - Visible Passes

Search period start: 22 May 2022 00:00
Search period end: 01 June 2022 00:00
Orbit: 1881 x 2163 km, 64.8° (Epoch: 21 May)

Date Brightness Start Highest point End Pass type
(mag) Time Alt. Az. Time Alt. Az. Time Alt. Az.
22 May 9.2 00:47:14 10° WSW 00:58:17 40° NW 01:09:42 10° NNE visible
22 May 10.0 03:06:12 10° NW 03:15:35 24° N 03:25:03 10° NE visible
22 May 8.1 21:57:13 10° S 22:08:39 62° ESE 22:20:37 10° NE visible
23 May 8.9 00:10:16 10° WSW 00:21:40 48° NW 00:33:30 10° NNE visible
23 May 9.9 02:28:53 10° WNW 02:38:23 25° N 02:48:01 10° NE visible
23 May 10.0 04:45:39 10° NW 04:56:20 32° NNE 05:06:51 10° E visible
23 May 8.3 21:21:56 10° S 21:32:53 48° ESE 21:44:17 10° NE visible
23 May 8.6 23:33:32 10° SW 23:45:11 57° NW 23:57:21 10° NNE visible
24 May 9.8 01:51:28 10° WNW 02:01:15 27° NNW 02:11:12 10° NE visible
24 May 10.1 04:09:09 10° NW 04:19:21 28° NNE 04:29:27 10° ENE visible
24 May 8.5 20:47:00 10° SSE 20:57:14 37° ESE 21:07:49 10° NE visible
24 May 8.4 22:57:03 10° SW 23:08:52 70° NW 23:21:14 10° NNE visible
25 May 9.7 01:14:02 10° W 01:24:12 29° NNW 01:34:36 10° NE visible
25 May 10.1 03:32:29 10° NW 03:42:16 26° NNE 03:51:59 10° ENE visible
25 May 8.2 22:20:50 10° SW 22:32:41 84° WNW 22:45:06 10° NNE visible
26 May 9.5 00:36:41 10° W 00:47:16 34° NNW 00:58:10 10° NNE visible
26 May 10.1 02:55:35 10° NW 03:05:05 24° N 03:14:35 10° ENE visible
26 May 8.1 21:44:53 10° SSW 21:56:38 80° ESE 22:08:57 10° NE visible
26 May 9.3 23:59:29 10° WSW 00:10:29 39° NW 00:21:52 10° NNE visible
27 May 10.1 02:18:29 10° NW 02:27:52 24° N 02:37:19 10° NE visible
27 May 9.8 04:34:09 10° NNW 04:45:25 37° NNE 04:56:24 10° E visible
27 May 8.1 21:09:13 10° SSW 21:20:43 64° ESE 21:32:45 10° NE visible
27 May 9.1 23:22:30 10° WSW 23:33:51 46° NW 23:45:38 10° NNE visible
28 May 10.0 01:41:11 10° WNW 01:50:40 25° N 02:00:15 10° NE visible
28 May 9.9 03:57:49 10° NNW 04:08:35 32° NNE 04:19:08 10° E visible
28 May 8.3 20:33:53 10° S 20:44:56 50° ESE 20:56:27 10° NE visible
28 May 8.8 22:45:43 10° WSW 22:57:21 56° NW 23:09:29 10° NNE visible
29 May 9.9 01:03:46 10° WNW 01:13:31 26° NNW 01:23:25 10° NE visible
29 May 10.0 03:21:21 10° NW 03:31:37 29° NNE 03:41:45 10° ENE visible
29 May 8.5 22:09:12 10° SW 22:21:00 68° NW 22:33:21 10° NNE visible
30 May 9.8 00:26:20 10° WNW 00:36:27 29° NNW 00:46:47 10° NE visible
30 May 10.1 02:44:41 10° NW 02:54:32 26° NNE 03:04:18 10° ENE visible
30 May 8.3 21:32:56 10° SW 21:44:48 82° WNW 21:57:14 10° NNE visible
30 May 9.7 23:48:58 10° W 23:59:30 33° NNW 00:10:19 10° NNE visible
31 May 10.1 02:07:50 10° NW 02:17:22 25° N 02:26:53 10° ENE visible
31 May 9.4 04:22:31 10° NNW 04:34:17 45° NE 04:45:42 10° ESE visible
31 May 8.2 20:56:57 10° SSW 21:08:44 82° ESE 21:21:06 10° NE visible
31 May 9.5 23:11:45 10° W 23:22:42 38° NW 23:34:00 10° NNE visible
